When you browse on this site, cookies collect data to enhance your experience and personalize the content and advertising you see.
Visit our Privacy Policy to learn more. By continuing to use the site, you agree to this use of cookies and data.
  • în România
  • Lista ţărilor
  • Pe 7 zile
  • Temperatura apei
  • Hartă satelitară
  • Meteo pe hartă
  • Widget-uri
  • user-avatar
    Intrare

    Meteo pe oră la Mosul

    Astăzi, 26 Martie, Marţi

    Timp Temperatura Precipitaţii Vânt Presiune Umiditate
    00:00 +10°C° 0 mm 1 m/s 726 mmHg 81%
    01:00 +10°C° 0 mm 1 m/s 726 mmHg 82%
    02:00 +10°C° 0 mm 1 m/s 726 mmHg 82%
    03:00 +9°C° 0 mm 2 m/s 726 mmHg 83%
    04:00 +10°C° 0 mm 1 m/s 727 mmHg 83%
    05:00 +11°C° 0 mm 1 m/s 727 mmHg 83%
    06:00 +11°C° 0 mm 1 m/s 727 mmHg 83%
    07:00 +12°C° 0 mm 1 m/s 727 mmHg 78%
    08:00 +13°C° 0 mm 1 m/s 727 mmHg 74%
    09:00 +13°C° 0 mm 1 m/s 728 mmHg 69%
    10:00 +14°C° 0.2 mm 2 m/s 727 mmHg 69%
    11:00 +14°C° 0.2 mm 2 m/s 727 mmHg 69%
    12:00 +14°C° 0.2 mm 2 m/s 727 mmHg 68%
    13:00 +13°C° 0.3 mm 3 m/s 727 mmHg 71%
    14:00 +12°C° 0.3 mm 4 m/s 727 mmHg 74%
    15:00 +12°C° 0.3 mm 5 m/s 727 mmHg 76%
    16:00 +12°C° 0 mm 3 m/s 728 mmHg 77%
    17:00 +13°C° 0 mm 2 m/s 728 mmHg 77%
    18:00 +13°C° 0 mm 1 m/s 728 mmHg 78%
    19:00 +12°C° 0 mm 1 m/s 729 mmHg 80%
    20:00 +12°C° 0 mm 2 m/s 729 mmHg 82%
    21:00 +10°C° 0 mm 3 m/s 730 mmHg 84%
    22:00 +10°C° 0 mm 3 m/s 730 mmHg 85%
    23:00 +9°C° 0 mm 2 m/s 731 mmHg 86%

    Mâine, 27 Martie, Miercuri

    Timp Temperatura Precipitaţii Vânt Presiune Umiditate
    00:00 +9°C° 0 mm 2 m/s 731 mmHg 87%
    01:00 +9°C° 0 mm 2 m/s 731 mmHg 88%
    02:00 +9°C° 0 mm 2 m/s 731 mmHg 88%
    03:00 +9°C° 0 mm 2 m/s 732 mmHg 89%
    04:00 +9°C° 0 mm 2 m/s 732 mmHg 89%
    05:00 +9°C° 0 mm 2 m/s 732 mmHg 89%
    06:00 +9°C° 0 mm 2 m/s 732 mmHg 89%
    07:00 +10°C° 0 mm 3 m/s 733 mmHg 83%
    08:00 +11°C° 0 mm 3 m/s 733 mmHg 77%
    09:00 +12°C° 0 mm 4 m/s 733 mmHg 72%
    10:00 +13°C° 0.1 mm 4 m/s 733 mmHg 67%
    11:00 +14°C° 0.1 mm 4 m/s 734 mmHg 63%
    12:00 +15°C° 0.1 mm 4 m/s 734 mmHg 59%
    13:00 +15°C° 0.1 mm 4 m/s 733 mmHg 57%
    14:00 +17°C° 0.1 mm 4 m/s 733 mmHg 55%
    15:00 +17°C° 0.1 mm 4 m/s 733 mmHg 53%
    16:00 +16°C° 0.6 mm 3 m/s 733 mmHg 59%
    17:00 +16°C° 0.6 mm 3 m/s 733 mmHg 64%
    18:00 +15°C° 0.6 mm 2 m/s 733 mmHg 70%
    19:00 +13°C° 0.3 mm 3 m/s 733 mmHg 73%
    20:00 +12°C° 0.3 mm 4 m/s 733 mmHg 77%
    21:00 +12°C° 0.3 mm 5 m/s 734 mmHg 81%
    22:00 +11°C° 0.3 mm 4 m/s 734 mmHg 82%
    23:00 +11°C° 0.3 mm 4 m/s 734 mmHg 84%

    Poimâine, 28 Martie, Joi

    Timp Temperatura Precipitaţii Vânt Presiune Umiditate
    00:00 +11°C° 0.3 mm 3 m/s 734 mmHg 85%
    01:00 +11°C° 0.1 mm 3 m/s 733 mmHg 86%
    02:00 +10°C° 0.1 mm 3 m/s 733 mmHg 88%
    03:00 +10°C° 0.1 mm 3 m/s 733 mmHg 89%
    04:00 +10°C° 0.1 mm 2 m/s 733 mmHg 89%
    05:00 +10°C° 0.1 mm 2 m/s 733 mmHg 89%
    06:00 +11°C° 0.1 mm 1 m/s 733 mmHg 89%
    07:00 +12°C° 0.2 mm 1 m/s 733 mmHg 83%
    08:00 +13°C° 0.2 mm 1 m/s 734 mmHg 78%
    09:00 +14°C° 0.2 mm 1 m/s 734 mmHg 72%
    10:00 +15°C° 0.3 mm 1 m/s 734 mmHg 69%
    11:00 +15°C° 0.3 mm 1 m/s 734 mmHg 65%
    12:00 +16°C° 0.3 mm 1 m/s 734 mmHg 61%
    13:00 +17°C° 1 mm 2 m/s 733 mmHg 59%
    14:00 +18°C° 1 mm 2 m/s 733 mmHg 57%
    15:00 +18°C° 1 mm 3 m/s 733 mmHg 55%
    16:00 +18°C° 0.4 mm 3 m/s 733 mmHg 58%
    17:00 +17°C° 0.4 mm 2 m/s 733 mmHg 61%
    18:00 +18°C° 0.4 mm 1 m/s 733 mmHg 64%
    19:00 +16°C° 0.1 mm 1 m/s 733 mmHg 66%
    20:00 +15°C° 0.1 mm 1 m/s 733 mmHg 69%
    21:00 +14°C° 0.1 mm 1 m/s 734 mmHg 71%
    22:00 +14°C° 0 mm 1 m/s 734 mmHg 71%
    23:00 +14°C° 0 mm 1 m/s 734 mmHg 70%

    29 Martie, Vineri

    Timp Temperatura Precipitaţii Vânt Presiune Umiditate
    00:00 +14°C° 0 mm 2 m/s 734 mmHg 70%
    01:00 +13°C° 0 mm 2 m/s 734 mmHg 71%
    02:00 +12°C° 0 mm 3 m/s 733 mmHg 73%
    03:00 +12°C° 0 mm 3 m/s 733 mmHg 75%
    04:00 +12°C° 0 mm 3 m/s 733 mmHg 76%
    05:00 +11°C° 0 mm 3 m/s 733 mmHg 78%
    06:00 +11°C° 0 mm 3 m/s 733 mmHg 79%
    07:00 +12°C° 0 mm 4 m/s 733 mmHg 75%
    08:00 +13°C° 0 mm 4 m/s 734 mmHg 71%
    09:00 +14°C° 0 mm 4 m/s 734 mmHg 67%
    10:00 +16°C° 0 mm 5 m/s 733 mmHg 60%
    11:00 +17°C° 0 mm 5 m/s 733 mmHg 52%
    12:00 +20°C° 0 mm 5 m/s 733 mmHg 44%
    13:00 +20°C° 0 mm 5 m/s 732 mmHg 42%
    14:00 +21°C° 0 mm 6 m/s 732 mmHg 40%
    15:00 +21°C° 0 mm 6 m/s 731 mmHg 37%
    16:00 +20°C° 0.2 mm 5 m/s 731 mmHg 44%
    17:00 +19°C° 0.2 mm 4 m/s 731 mmHg 51%
    18:00 +17°C° 0.2 mm 3 m/s 731 mmHg 57%
    19:00 +15°C° 0.2 mm 4 m/s 731 mmHg 64%
    20:00 +14°C° 0.2 mm 6 m/s 731 mmHg 70%
    21:00 +12°C° 0.2 mm 8 m/s 731 mmHg 76%
    22:00 +12°C° 0 mm 7 m/s 731 mmHg 76%
    23:00 +12°C° 0 mm 7 m/s 731 mmHg 76%

    30 Martie, Sâmbătă

    Timp Temperatura Precipitaţii Vânt Presiune Umiditate
    00:00 +13°C° 0 mm 6 m/s 731 mmHg 76%
    01:00 +11°C° 0.2 mm 6 m/s 730 mmHg 76%
    02:00 +11°C° 0.2 mm 6 m/s 730 mmHg 77%
    03:00 +12°C° 0.2 mm 5 m/s 730 mmHg 78%
    04:00 +11°C° 0.2 mm 6 m/s 730 mmHg 78%
    05:00 +11°C° 0.2 mm 7 m/s 730 mmHg 77%
    06:00 +11°C° 0.2 mm 7 m/s 730 mmHg 77%
    07:00 +11°C° 0.1 mm 8 m/s 730 mmHg 75%
    08:00 +12°C° 0.1 mm 9 m/s 730 mmHg 72%
    09:00 +12°C° 0.1 mm 9 m/s 730 mmHg 70%
    10:00 +14°C° 0 mm 10 m/s 730 mmHg 61%
    11:00 +18°C° 0 mm 10 m/s 729 mmHg 53%
    12:00 +21°C° 0 mm 10 m/s 729 mmHg 44%
    13:00 +21°C° 0.1 mm 9 m/s 728 mmHg 45%
    14:00 +21°C° 0.1 mm 8 m/s 728 mmHg 45%
    15:00 +21°C° 0.1 mm 6 m/s 728 mmHg 46%
    16:00 +20°C° 0.3 mm 7 m/s 728 mmHg 52%
    17:00 +18°C° 0.3 mm 7 m/s 728 mmHg 59%
    18:00 +16°C° 0.3 mm 8 m/s 728 mmHg 65%
    19:00 +16°C° 0.2 mm 8 m/s 728 mmHg 69%
    20:00 +15°C° 0.2 mm 7 m/s 729 mmHg 72%
    21:00 +14°C° 0.2 mm 7 m/s 729 mmHg 75%
    22:00 +14°C° 1.6 mm 6 m/s 729 mmHg 78%
    23:00 +14°C° 1.6 mm 5 m/s 728 mmHg 80%

    31 Martie, Duminică

    Timp Temperatura Precipitaţii Vânt Presiune Umiditate
    00:00 +13°C° 1.6 mm 4 m/s 728 mmHg 83%
    01:00 +13°C° 1.6 mm 5 m/s 727 mmHg 83%
    02:00 +13°C° 1.6 mm 6 m/s 727 mmHg 83%
    03:00 +12°C° 1.6 mm 7 m/s 726 mmHg 83%
    04:00 +13°C° 0.2 mm 6 m/s 726 mmHg 83%
    05:00 +12°C° 0.2 mm 5 m/s 726 mmHg 82%
    06:00 +12°C° 0.2 mm 4 m/s 726 mmHg 82%
    07:00 +13°C° 1 mm 4 m/s 726 mmHg 81%
    08:00 +14°C° 1 mm 4 m/s 726 mmHg 81%
    09:00 +14°C° 1 mm 4 m/s 726 mmHg 81%
    10:00 +14°C° 2.3 mm 4 m/s 725 mmHg 84%
    11:00 +14°C° 2.3 mm 4 m/s 725 mmHg 87%
    12:00 +14°C° 2.3 mm 4 m/s 725 mmHg 90%
    13:00 +14°C° 1.9 mm 6 m/s 724 mmHg 87%
    14:00 +15°C° 1.9 mm 7 m/s 724 mmHg 84%
    15:00 +16°C° 1.9 mm 9 m/s 723 mmHg 81%
    16:00 +15°C° 7.1 mm 8 m/s 723 mmHg 83%
    17:00 +15°C° 7.1 mm 7 m/s 723 mmHg 86%
    18:00 +14°C° 7.1 mm 6 m/s 723 mmHg 89%
    19:00 +14°C° 0.8 mm 5 m/s 723 mmHg 89%
    20:00 +14°C° 0.8 mm 4 m/s 724 mmHg 89%
    21:00 +13°C° 0.8 mm 3 m/s 725 mmHg 90%
    22:00 +14°C° 0.2 mm 2 m/s 725 mmHg 89%
    23:00 +13°C° 0.2 mm 1 m/s 725 mmHg 88%
    Arată mai mult